Regional Weather Roundup
Issued by NWS San Angelo, TX

Home | Current Version | Previous Version | Text Only | Print | Product List | Glossary On
Versions: 1 2 3 4 5 6 7 8 9 10 11 12 13 14 15 16 17 18 19 20 21 22 23 24 25 26 27 28 29 30 31 32 33 34 35 36 37 38 39 40 41 42 43 44 45 46 47 48 49 50
000
ASUS44 KSJT 080811
RWRSJT
WEST CENTRAL TEXAS REGIONAL WEATHER ROUNDUP
NATIONAL WEATHER SERVICE SAN ANGELO TX
200 AM CST MON FEB 08 2016

NOTE: "FAIR" INDICATES FEW OR NO CLOUDS BELOW 12,000 FEET WITH NO
SIGNIFICANT WEATHER AND/OR OBSTRUCTIONS TO VISIBILITY.

TXZ049-054-064>066-071>073-076>078-098-099-113-114-127-128-139-140-
154-155-168>170-080900
...LOCATIONS ACROSS WEST CENTRAL TEXAS...

CITY           SKY/WX    TMP DP  RH WIND       PRES   REMARKS
SAN ANGELO     CLEAR     46  21  37 NE20G28   30.35R WCI  38
ABILENE        CLEAR     38  22  52 N7        30.37R WCI  33
DYESS AFB      CLEAR     39  20  46 N7        30.36S WCI  34
JUNCTION       CLOUDY    46  25  43 N7        30.29S
SWEETWATER     CLEAR     39  20  45 N9        30.40R WCI  33
BROWNWOOD      CLEAR     46  23  39 N13G20    30.32R
COLEMAN        SUNNY     44  19  36 N16G22    30.33R WCI  37
SONORA         PTCLDY    43  25  49 N8        30.34S WCI  38
OZONA          FAIR      43  27  52 NE8       30.33S WCI  38
BRADY          NOT AVBL
$$

TEXAS PANHANDLE/OKLAHOMA PANHANDLE

CITY           SKY/WX    TMP DP  RH WIND       PRES   REMARKS
AMARILLO       CLOUDY    30  12  47 NW9       30.42S WCI  22
BORGER         CLEAR     30  14  51 W10       30.43S WCI  21
CANADIAN       CLEAR     35  16  46 NW15G22   30.38F WCI  25
DALHART        CLOUDY    22  13  68 NW9       30.43F WCI  12
DUMAS          CLOUDY    22  13  70 NW10      30.42F WCI  11
GUYMON         NOT AVBL
HEREFORD       NOT AVBL
PAMPA          SUNNY     27  16  63 NW12      30.40F WCI  16
PERRYTON       CLEAR     30  19  62 NW13      30.38S WCI  20
$$

SOUTHERN PANHANDLE/SOUTH PLAINS/ROLLING PLAINS

CITY           SKY/WX    TMP DP  RH WIND       PRES   REMARKS
LUBBOCK        CLOUDY    27  14  58 N7        30.43R WCI  19
SNYDER           N/A     38  18  43 N13       30.40R WCI  30
CHILDRESS      PTCLDY    35  14  42 NW10      30.40S WCI  27
SEMINOLE       CLOUDY    37  17  45 NE14G20   30.41R WCI  28
$$

PERMIAN BASIN

CITY           SKY/WX    TMP DP  RH WIND       PRES   REMARKS
MIDLAND        CLOUDY    42  21  43 NE23      30.37R WCI  33
ODESSA         CLOUDY    41  22  46 NE21      30.38R WCI  32
WINK           CLOUDY    42  22  44 E5        30.35R WCI  39
$$

FAR WEST/SOUTHWEST MOUNTAINS/TRANS PECOS

CITY           SKY/WX    TMP DP  RH WIND       PRES   REMARKS
ALPINE         CLOUDY    38  17  42 CALM      30.38S
DRYDEN           N/A     48  20  32 N9        30.30R
EL PASO        MOCLDY    43  15  32 NW5       30.29F
FORT STOCKTON  CLOUDY    44  23  43 SE9       30.34R WCI  39
GUADALUPE PASS CLOUDY    42  15  33 NE35      30.33F WCI  31
MARFA          CLOUDY    34  13  41 N6        30.32F WCI  29
PECOS          CLOUDY    42  20  43 N6        30.36R WCI  38
$$

DALLAS/FORT WORTH METROPLEX

CITY           SKY/WX    TMP DP  RH WIND       PRES   REMARKS
DFW AIRPORT    PTCLDY    47  22  37 N15       30.28S
FTW MEACHAM    PTCLDY    47  23  38 NW12      30.30R
DAL-EXECUTIVE  PTCLDY    49  19  30 N21G28    30.27S
GRAND PRAIRIE  CLEAR     49  21  32 NW9G23    30.30S
ADDISON        CLEAR     47  28  48 NW10G20   30.29S
MESQUITE       SUNNY     48  20  33 NW20      30.27S
LANCASTER      SUNNY     48  23  37 NW15G22   30.28S
$$

NORTH CENTRAL TEXAS

CITY           SKY/WX    TMP DP  RH WIND       PRES   REMARKS
SHRMAN/DENISON MOSUNNY   45  18  34 NW14      30.27S WCI  38
GAINESVILLE    CLEAR     40  22  48 NW10      30.31S WCI  34
BRIDGEPORT     SUNNY     46  24  43 NW10      30.34S
DENTON         CLEAR     43  23  45 NW12      30.30R WCI  37
WAXAHACHIE     SUNNY     47  26  43 N18G25    30.28F
GRANBURY       SUNNY     48  26  41 NW9       30.33S
$$

WESTERN NORTH TEXAS

CITY           SKY/WX    TMP DP  RH WIND       PRES   REMARKS
WICHITA FALLS  MOCLDY    41  17  38 NW15      30.34S WCI  33
VERNON         MOSUNNY   39  12  32 NW15      30.38F WCI  31
BRECKENRIDGE   SUNNY     42  19  39 N7        30.36S WCI  38
COMANCHE       CLEAR     45  28  51 N12       30.31S WCI  39
$$

CENTRAL AND SOUTH CENTRAL TEXAS

CITY           SKY/WX    TMP DP  RH WIND       PRES   REMARKS
AUSTIN/BERGSTM CLEAR     46  35  65 N14       30.21R WCI  40
WACO           CLEAR     45  30  55 NW9       30.27R
HILLSBORO      MOSUNNY   46  29  50 N15       30.27R WCI  40
TEMPLE         CLEAR     45  32  60 N9        30.26R
KILLEEN-GRAY   CLEAR     44  30  57 N9        30.26R WCI  39
FORT HOOD      CLEAR     47  29  49 N12       30.25R
GEORGETOWN     CLEAR     50  30  46 N15       30.23R
LAGO VISTA     FAIR      51  31  46 N17G28    30.22R
SAN MARCOS     CLEAR     43  30  61 NW12      30.21R WCI  37
NEW BRAUNFELS  CLEAR     47  32  56 NW13      30.19R
RANDOLPH AFB   CLEAR     50  29  43 N8        30.20R
SAN ANTONIO    CLEAR     48  30  49 N10       30.21S
STINSON        CLEAR     42  34  73 NW3       30.20R
PLEASANTON     NOT AVBL
LA GRANGE      CLEAR     42  38  84 CALM      30.18F
GIDDINGS       SUNNY     38  34  85 CALM      30.23S
$$

EAST TEXAS

CITY           SKY/WX    TMP DP  RH WIND       PRES   REMARKS
PARIS          CLOUDY    46  19  34 NW18      30.21S WCI  39
CLARKSVILLE    NOT AVBL
TYLER          PTCLDY    50  26  39 N13       30.21R
LONGVIEW       PTCLDY    46  32  58 NW12      30.17R
PALESTINE      SUNNY     47  36  64 NW6       30.23R
NACOGDOCHES    CLEAR     34  30  86 CALM      30.18R
$$

TEXAS HILL COUNTRY AND EDWARDS PLATEAU

CITY           SKY/WX    TMP DP  RH WIND       PRES   REMARKS
LLANO          MOSUNNY   48  28  46 N9        30.31R
HORSESHOE BAY  FAIR      51  32  48 N6        30.26R
KERRVILLE      CLOUDY    45  28  51 NW9       30.25S WCI  40
FREDERICKSBRG  PTCLDY    47  26  43 N12       30.25S
ROCKSPRINGS    MOSUNNY   45  27  49 NE9       30.28S WCI  40
HONDO          CLOUDY    52  25  35 N15       30.24R
UVALDE         MOSUNNY   50  27  40 N10       30.23R
DEL RIO        CLOUDY    54  23  30 N12       30.23R
$$

SOUTHEAST TEXAS

CITY           SKY/WX    TMP DP  RH WIND       PRES   REMARKS
COLLEGE STN    CLEAR     45  35  68 NW5       30.22R
CALDWELL       SUNNY     43  34  70 NW3       30.25S
CROCKETT       SUNNY     36  32  87 CALM      30.24R
BRENHAM        CLEAR     46  39  78 NW7       30.22R
HUNTSVILLE     CLEAR     40  36  86 CALM      30.21R
CONROE         CLEAR     35  33  92 CALM      30.20R
HOUSTON BUSH   PTCLDY    47  39  74 CALM      30.19S
HOUSTON HOBBY  PTCLDY    45  40  82 CALM      30.18S
PERLAND        CLEAR     44  39  82 CALM      30.19S
WHARTON        SUNNY     40  37  90 CALM      30.20R
$$

THE UPPER TEXAS COAST

CITY           SKY/WX    TMP DP  RH WIND       PRES   REMARKS
ORANGE         MOSUNNY   43  40  90 CALM      30.18S
PORT ARTHUR    PTCLDY    46  45  96 W7        30.17S
GALVESTON      CLEAR     51  49  92 W5        30.18S
ANGLETON       CLEAR     42  40  92 CALM      30.18S
BAY CITY       SUNNY     43  43 100 CALM      30.18S
$$

TEXAS COASTAL BEND, RIO GRANDE PLAINS DEEP SOUTH TEXAS

CITY           SKY/WX    TMP DP  RH WIND       PRES   REMARKS
VICTORIA       CLEAR     43  42  97 W5        30.18R
BEEVILLE       FAIR      49  46  87 SW3       30.16S
ROCKPORT       CLOUDY    52  48  86 SW3       30.16S
PORT ARANSAS   MOSUNNY   56  53  88 SW3       30.16S
PORT LAVACA    SUNNY     46  45  97 W5        30.18R
CORPUS CHRISTI MOCLDY    48  45  89 S3        30.16S
KINGSVILLE NAS MOCLDY    44  42  93 CALM      30.17S
COTULLA        PTCLDY    48  33  56 CALM      30.19R
LAREDO         MOCLDY    53  35  50 E3        30.17S
BROWNSVILLE    CLOUDY    54  51  90 NE5       30.16F
PORT ISABEL    MOCLDY    56  54  93 E5        30.15F
HEBBRONVILLE   NOT AVBL
MCALLEN        MOCLDY    57  47  69 E3        30.16S
WESLACO        CLOUDY    53  45  73 CALM      30.16S
FALFURRIAS     PTSUNNY   49  42  77 CALM      30.16S
EDINBURG       CLOUDY    52  43  70 CALM      30.17S
$$



USA.gov is the U.S. government's official web portal to all federal, state and local government web resources and services.